sat.trackr.live / text

‹ back to catalog

STARLINK-32803

NORAD 63024 · 2025-032V

PAYLOAD ACTIVE UNKNOWN

§ Identity

Operator
Country
US
Launch date
2025-02-15
Launch site
AFETR
Launch vehicle
Mass (kg)
RCS (m²)

Purposes: comms

External: N2YO · Heavens-Above · Gunter

§ Orbital elements

Epoch: 2026-05-24T17:47:49.896672Z

Period
94.27 min
Inclination
43.0001°
Eccentricity
0.0001573
Mean motion
15.27588543 rev/d
Perigee alt
481.9 km
Apogee alt
484.1 km
Semi-major
6,861.2 km
B*
2.8681e-4
RAAN
266.3329°
Arg perigee
275.4371°
Mean anomaly
84.6301°
Rev number
7,209

§ Raw data

STARLINK-328031 63024U 25032V   26144.74154973  .00007641  00000+0  28681-3 0  99992 63024  43.0001 266.3329 0001573 275.4371  84.6301 15.27588543 72099

JSON: /api/v1/satellites/63024 · /tle

For live sub-satellite position, see the globe view (requires WebGL).

§ Visibility from observer

Set your observer location to see the next 7 days of passes ≥ 10°. The values pass through the URL so the page stays shareable.

No JS? Fill the form by hand. The geolocation button needs JavaScript.